Abilene, TX

10:27 PM CDT on April 21, 2018 (GMT -0500)
Abilene Regional

Weather History for KABI - May, 2012

Change the Weather History Date:

Friday, May 25, 2012

  Actual Average Record
Temperature  
Mean Temperature 84 °F 75 °F  
Max Temperature 96 °F 87 °F 102 °F (1989)
Min Temperature 72 °F 64 °F 46 °F (1947)
Degree Days  
Heating Degree Days 0 0  
Month to date heating degree days 5 13  
Since 1 July heating degree days 2089 2555  
Cooling Degree Days 19 11  
Month to date cooling degree days 267 198  
Year to date cooling degree days 562 331  
Growing Degree Days 34 (Base 50)    
Moisture  
Dew Point 67 °F    
Average Humidity 62    
Maximum Humidity 87    
Minimum Humidity 36    
Precipitation  
Precipitation 0.00 in 0.12 in 1.54 in (1919)
Month to date precipitation 1.98 2.42  
Year to date precipitation 8.53 8.18  
Sea Level Pressure  
Sea Level Pressure 29.69 in    
Wind  
Wind Speed 18 mph (South)    
Max Wind Speed 28 mph    
Max Gust Speed 32 mph    
Visibility 10 miles    
Events      
T = Trace of Precipitation, MM = Missing Value Source: NWS Daily Summary

Daily Weather History Graph

Daily Weather History Graph

Search for Another Location

Airport or City:

Astronomy

May. 25, 2012 Rise Set
Actual Time 6:34 AM CDT 8:37 PM CDT
Civil Twilight 6:07 AM CDT 9:04 PM CDT
Nautical Twilight 5:33 AM CDT 9:38 PM CDT
Astronomical Twilight 4:57 AM CDT 10:14 PM CDT
Moon 10:31 AM CDT (5/25) No Moon Set
Length of Visible Light 14h 57m
Length of Day
14h 02m
Waxing Crescent, 20% of the Moon is Illuminated
May 25
Waxing Crescent
May 28
First Quarter
Jun 4
Full
Jun 11
Last Quarter
Jun 19
New

Hourly Weather History & Observations

Time (CDT) Temp. Heat Index Dew Point Humidity Pressure Visibility Wind Dir Wind Speed Gust Speed Precip Events Conditions
12:52 AM 81.0 °F 83.8 °F 68.0 °F 65% 29.60 in 10.0 mi South 13.8 mph 20.7 mph N/A   Clear
1:52 AM 79.0 °F - 68.0 °F 69% 29.60 in 10.0 mi South 13.8 mph - N/A   Clear
2:52 AM 77.0 °F - 70.0 °F 79% 29.61 in 10.0 mi South 18.4 mph 24.2 mph N/A   Clear
3:52 AM 75.0 °F - 70.0 °F 84% 29.60 in 10.0 mi SSE 15.0 mph 23.0 mph N/A   Clear
4:52 AM 73.0 °F - 70.0 °F 90% 29.62 in 10.0 mi South 18.4 mph 26.5 mph N/A   Clear
5:52 AM 73.0 °F - 70.0 °F 90% 29.63 in 10.0 mi SSE 13.8 mph - N/A   Clear
6:52 AM 73.0 °F - 70.0 °F 90% 29.64 in 10.0 mi South 18.4 mph 25.3 mph N/A   Clear
7:52 AM 73.0 °F - 70.0 °F 90% 29.66 in 10.0 mi South 18.4 mph 26.5 mph N/A   Clear
8:52 AM 75.9 °F - 69.1 °F 79% 29.68 in 10.0 mi South 20.7 mph 24.2 mph N/A   Clear
9:52 AM 81.0 °F 84.1 °F 69.1 °F 67% 29.72 in 10.0 mi South 11.5 mph 21.9 mph N/A   Clear
10:52 AM 84.9 °F 88.2 °F 68.0 °F 57% 29.72 in 10.0 mi South 15.0 mph 21.9 mph N/A   Clear
11:52 AM 88.0 °F 91.4 °F 68.0 °F 51% 29.72 in 10.0 mi South 21.9 mph 28.8 mph N/A   Clear
12:52 PM 90.0 °F 93.6 °F 68.0 °F 48% 29.73 in 10.0 mi SSW 13.8 mph - N/A   Clear
1:52 PM 93.0 °F 96.4 °F 66.9 °F 42% 29.72 in 10.0 mi South 17.3 mph - N/A   Clear
2:52 PM 95.0 °F 97.0 °F 64.0 °F 36% 29.71 in 10.0 mi South 15.0 mph 27.6 mph N/A   Clear
3:52 PM 93.9 °F 97.0 °F 66.0 °F 40% 29.70 in 10.0 mi SSE 21.9 mph 27.6 mph N/A   Clear
4:52 PM 93.9 °F 97.0 °F 66.0 °F 40% 29.71 in 10.0 mi South 19.6 mph 29.9 mph N/A   Clear
5:52 PM 93.0 °F 94.6 °F 64.0 °F 38% 29.72 in 10.0 mi South 19.6 mph 25.3 mph N/A   Clear
6:52 PM 91.9 °F 94.1 °F 64.9 °F 41% 29.72 in 10.0 mi SSE 18.4 mph 24.2 mph N/A   Clear
7:52 PM 91.0 °F 91.5 °F 62.1 °F 38% 29.73 in 10.0 mi SSE 16.1 mph 21.9 mph N/A   Clear
8:52 PM 88.0 °F 88.7 °F 63.0 °F 43% 29.74 in 10.0 mi SSE 18.4 mph - N/A   Clear
9:52 PM 86.0 °F 87.6 °F 64.9 °F 49% 29.75 in 10.0 mi SSE 20.7 mph 26.5 mph N/A   Clear
10:52 PM 84.9 °F 87.1 °F 66.0 °F 53% 29.78 in 10.0 mi SSE 20.7 mph 29.9 mph N/A   Clear
11:52 PM 82.0 °F 84.9 °F 68.0 °F 62% 29.80 in 10.0 mi SSE 18.4 mph 26.5 mph N/A   Clear